TimePDT,TemperatureF,Dew PointF,Humidity,Sea Level PressureIn,VisibilityMPH,Wind Direction,Wind SpeedMPH,Gust SpeedMPH,PrecipitationIn,Events,Conditions,WindDirDegrees,DateUTC
12:58 AM,75.7,57.0,52,30.01,10.0,SSE,10.4,-,N/A,,Clear,160,2013-08-21 07:58:00
1:58 AM,70.9,57.9,63,30.01,10.0,SSE,5.8,-,N/A,,Partly Cloudy,160,2013-08-21 08:58:00
2:58 AM,69.8,56.5,63,30.01,10.0,South,5.8,-,N/A,,Partly Cloudy,180,2013-08-21 09:58:00
3:58 AM,69.3,53.1,56,30.02,10.0,South,8.1,-,N/A,,Partly Cloudy,170,2013-08-21 10:58:00
4:58 AM,65.5,54.0,66,30.03,10.0,SSW,5.8,-,N/A,,Clear,200,2013-08-21 11:58:00
5:58 AM,64.2,54.3,70,30.04,10.0,Calm,Calm,-,N/A,,Clear,0,2013-08-21 12:58:00
6:58 AM,64.2,53.6,68,30.06,10.0,SSW,2.3,-,N/A,,Clear,200,2013-08-21 13:58:00
7:58 AM,67.5,52.2,58,30.07,10.0,South,9.2,-,N/A,,Clear,170,2013-08-21 14:58:00
8:58 AM,72.0,51.1,48,30.08,10.0,South,9.2,-,N/A,,Clear,170,2013-08-21 15:58:00
9:58 AM,75.2,52.0,44,30.08,10.0,SSE,9.2,-,N/A,,Clear,160,2013-08-21 16:58:00
10:58 AM,77.0,55.4,47,30.09,10.0,South,11.5,-,N/A,,Clear,190,2013-08-21 17:58:00
11:58 AM,80.1,55.6,43,30.09,10.0,South,12.7,-,N/A,,Clear,180,2013-08-21 18:58:00
12:58 PM,82.8,56.3,40,30.08,10.0,South,13.8,-,N/A,,Clear,190,2013-08-21 19:58:00
1:58 PM,86.0,58.3,39,30.06,10.0,South,9.2,-,N/A,,Clear,190,2013-08-21 20:58:00
2:58 PM,88.9,58.3,35,30.04,10.0,South,8.1,-,N/A,,Clear,180,2013-08-21 21:58:00
3:58 PM,90.9,55.8,30,30.03,10.0,SSW,9.2,-,N/A,,Clear,200,2013-08-21 22:58:00
4:58 PM,91.0,56.5,31,30.01,10.0,SSW,4.6,-,N/A,,Clear,200,2013-08-21 23:58:00
5:58 PM,90.7,55.9,31,30.01,10.0,SW,10.4,-,N/A,,Clear,220,2013-08-22 00:58:00
6:58 PM,88.0,52.0,29,30.01,10.0,SSW,8.1,-,N/A,,Clear,200,2013-08-22 01:58:00
7:58 PM,79.2,56.3,45,30.00,10.0,SSE,3.5,-,N/A,,Clear,150,2013-08-22 02:58:00
8:58 PM,77.2,45.1,32,30.03,10.0,SE,4.6,-,N/A,,Clear,130,2013-08-22 03:58:00
9:58 PM,75.7,50.2,41,30.05,10.0,SSE,8.1,-,N/A,,Clear,150,2013-08-22 04:58:00
10:58 PM,74.5,46.0,36,30.06,10.0,SSE,6.9,-,N/A,,Clear,150,2013-08-22 05:58:00
11:58 PM,67.1,48.2,51,30.06,10.0,Calm,Calm,-,N/A,,Clear,0,2013-08-22 06:58:00